Theta_e
314 314 313 316 318 317 318 324 334 335 338 336 337 335 330 330 329 330 333 333 333 333 330 329 328 327 326 325 323 322 322 321 323 320 318 317 321 321 321 323 323 326 327
310 313 314 315 316 319 325 327 334 338 339 339 337 333 331 328 329 330 333 333 332 332 330 327 326 325 324 323 321 321 317 318 320 316 316 314 317 320 322 322 323 322 323
310 311 313 312 315 323 328 333 337 338 338 337 334 329 327 326 325 327 328 329 331 330 329 326 325 324 323 321 320 319 318 315 316 317 314 311 308 314 318 321 321 322 321
309 311 312 311 320 325 332 337 337 338 338 337 332 330 324 323 323 325 326 327 330 330 329 328 326 324 322 321 321 322 318 316 313 315 319 316 315 311 307 314 318 320 322
309 309 309 315 324 330 333 338 337 337 335 333 330 328 324 323 323 325 326 325 326 328 329 326 325 323 322 321 322 321 319 318 315 314 314 314 315 318 311 307 311 317 319
307 308 318 326 327 331 336 336 335 332 331 329 327 324 324 323 323 323 323 322 322 324 326 326 323 323 322 322 322 322 321 319 318 317 316 314 313 314 314 309 309 311 317
314 320 322 325 328 332 333 332 331 328 328 326 325 324 324 323 323 323 322 321 321 322 323 323 322 322 323 323 323 322 320 320 320 319 318 318 315 314 314 314 311 311 318
319 320 323 326 329 331 330 329 328 327 326 326 324 324 324 324 323 322 322 322 322 322 323 323 322 323 325 326 325 322 322 322 321 319 319 318 317 314 316 317 314 312 316
319 321 325 327 328 327 328 326 326 325 325 326 325 324 325 324 323 322 322 322 322 323 322 324 324 325 327 327 325 323 322 322 320 321 320 320 319 318 317 318 318 314 310
319 322 325 326 326 326 326 325 325 324 325 325 325 325 325 325 324 323 323 323 321 323 324 323 325 326 325 325 324 322 324 323 323 323 323 322 320 320 321 320 320 318 315
319 322 324 325 325 327 325 324 324 324 325 324 324 324 324 324 323 322 322 322 321 322 323 324 325 325 324 323 322 324 325 325 324 323 321 321 321 320 321 322 321 319 318
319 323 324 324 325 325 324 323 323 324 324 324 323 323 323 322 322 322 322 321 320 322 323 324 327 326 326 324 323 325 326 322 323 322 321 319 324 321 321 318 319 319 318
321 322 323 324 324 324 324 323 323 322 324 325 324 326 325 322 321 322 322 320 319 321 326 322 325 325 325 324 324 326 326 323 322 322 321 319 321 324 322 321 320 319 320
320 321 322 323 324 325 324 323 322 322 325 326 327 324 323 322 321 322 321 320 320 324 324 326 328 326 325 326 328 328 326 323 322 321 321 321 324 323 322 321 320 320 319
319 320 320 322 322 323 323 323 321 321 324 326 327 325 325 323 322 322 321 326 324 325 326 327 323 321 321 319 321 325 323 322 321 322 324 325 324 322 321 322 320 319 318
319 320 321 322 322 322 322 321 320 319 324 326 326 327 327 324 324 321 320 321 321 323 325 323 320 318 318 303 307 319 322 323 322 320 322 322 319 316 313 314 315 319 319
319 320 321 322 322 322 321 318 318 322 324 327 329 328 325 324 323 324 322 319 324 323 325 319 316 315 313 302 302 312 323 321 322 323 322 321 319 318 317 310 310 311 311
320 321 322 322 322 321 318 317 321 323 324 327 329 326 323 322 322 321 318 319 320 320 320 317 316 314 314 302 302 310 322 321 324 324 322 320 320 319 321 320 319 320 319
321 322 323 322 319 318 317 319 320 322 323 325 325 325 323 321 323 323 319 319 320 318 319 318 316 315 313 301 303 316 321 321 324 325 323 322 320 304 307 321 318 317 315
319 322 322 321 318 315 318 318 317 319 321 325 323 324 323 323 323 324 320 320 320 322 322 319 317 312 315 300 302 316 323 321 322 323 319 309 314 301 306 320 319 316 316
320 322 321 319 317 317 318 316 315 315 321 324 325 322 322 322 322 321 320 321 321 321 322 319 316 315 314 310 302 308 321 322 322 321 319 315 300 300 303 309 319 315 316
321 322 319 317 317 317 317 315 313 316 322 324 323 322 323 325 324 321 322 322 321 319 318 317 316 316 315 305 300 303 310 312 322 320 319 310 298 300 301 310 298 301 310
321 321 318 317 316 316 317 314 315 317 322 322 322 322 324 324 322 321 321 320 319 318 317 317 317 315 315 314 301 301 303 306 317 318 311 299 298 298 301 299 300 305 317
322 321 318 316 315 314 317 317 315 319 323 322 323 323 323 321 321 322 322 321 319 318 319 318 315 315 315 316 314 312 311 305 309 305 308 305 306 303 306 307 309 319 317
319 322 318 317 316 315 316 317 316 321 323 323 323 323 322 321 319 316 317 322 322 321 321 320 318 316 315 317 310 313 316 314 309 309 313 316 317 315 315 316 315 317 317
316 320 319 319 318 317 316 319 316 323 323 321 323 323 322 320 318 312 308 298 300 300 305 309 315 319 310 302 302 303 301 299 300 313 314 312 314 316 317 316 315 315 314
Wind_Speed
17 11 8 8 9 9 9 11 10 9 10 9 8 7 6 7 5 5 8 7 5 7 7 4 4 4 5 6 5 3 5 4 3 2 1 2 4 3 4 3 3 4 4
9 10 9 9 9 8 9 7 9 13 11 9 7 5 6 3 5 5 8 8 7 7 6 6 5 6 4 4 3 4 1 3 4 3 2 2 2 3 4 3 4 6 4
11 10 10 12 6 9 9 9 9 9 8 11 9 6 6 5 3 3 3 5 7 7 7 7 6 5 3 4 3 4 6 3 2 4 4 2 4 1 1 5 4 4 3
9 11 12 7 9 7 6 8 10 11 8 11 10 13 5 5 3 4 4 5 6 7 6 6 5 5 4 4 4 4 3 3 3 1 3 2 2 2 2 2 2 2 4
11 12 10 8 6 9 9 10 11 9 7 9 11 9 6 3 3 3 8 6 4 5 5 6 5 4 4 4 5 4 4 3 3 3 2 2 1 1 2 2 0 2 3
10 8 4 10 10 9 11 11 12 8 8 9 9 9 9 7 5 5 5 4 3 3 4 5 4 4 4 5 4 5 5 5 4 3 3 3 4 3 3 2 1 3 2
4 7 11 12 11 12 12 10 12 9 9 10 9 8 8 9 9 7 5 6 3 2 3 4 4 3 5 5 4 3 4 4 4 5 5 4 4 3 3 3 1 3 1
6 7 7 9 12 13 10 10 12 10 10 9 8 7 9 6 5 5 4 4 4 3 4 4 4 5 5 5 5 3 4 4 4 6 5 4 4 4 4 4 4 3 2
9 11 10 10 11 10 11 11 10 10 10 9 8 7 7 8 7 7 6 4 3 3 5 5 5 4 6 5 5 4 4 4 3 5 5 4 4 4 4 3 4 5 4
11 11 11 11 9 9 9 9 9 11 9 9 8 8 8 8 7 6 6 5 4 4 5 4 3 4 4 4 5 4 3 5 3 3 5 3 2 4 4 4 4 2 5
13 12 11 10 10 10 9 8 8 9 8 8 7 8 7 8 6 6 5 5 4 4 5 4 4 4 3 3 3 3 3 4 2 2 4 5 3 3 3 3 3 4 5
12 13 12 12 12 10 9 8 7 8 8 7 7 7 7 7 7 6 6 5 5 4 5 4 4 4 3 3 3 4 3 5 4 4 3 3 2 4 5 4 6 7 5
15 14 13 12 11 11 9 8 7 7 7 7 8 8 8 7 7 6 6 5 4 5 2 3 5 3 2 2 2 3 2 6 4 3 4 5 5 5 6 7 8 8 8
17 14 13 12 12 11 10 9 7 7 7 7 9 8 7 7 6 6 5 5 4 4 3 4 5 4 4 4 3 0 3 5 4 2 3 5 6 9 10 8 9 10 10
17 15 14 13 11 11 10 9 8 7 7 7 8 8 6 6 6 5 5 3 4 3 3 6 6 5 4 4 5 3 5 5 5 4 3 6 9 12 10 9 10 13 11
17 16 16 15 13 13 11 10 8 7 7 7 8 8 8 6 6 5 5 3 3 4 5 6 5 5 3 6 5 3 5 4 5 6 7 9 11 11 11 12 11 11 15
17 17 17 16 14 13 11 10 8 7 8 9 9 9 7 6 6 6 5 4 4 4 5 7 5 5 4 6 6 6 4 4 5 7 6 7 6 9 10 13 13 13 12
17 16 15 14 13 12 10 8 9 9 9 10 10 8 8 6 5 6 6 4 3 5 5 5 5 4 3 7 3 8 6 5 6 6 8 8 9 10 12 12 13 12 10
17 16 15 14 11 13 10 12 10 9 9 10 8 8 8 7 6 6 6 3 4 4 4 4 6 5 3 6 3 7 5 6 7 7 8 7 11 11 12 14 14 12 11
9 14 14 13 14 9 11 14 11 9 8 11 10 9 7 7 7 6 6 3 2 4 5 5 4 5 4 5 2 7 5 8 6 7 7 9 10 12 11 13 13 12 9
12 13 15 16 14 11 13 13 10 10 9 12 12 9 8 8 7 7 3 4 3 5 6 5 3 4 3 3 5 9 5 7 6 5 6 5 11 13 13 10 11 11 10
14 16 14 13 11 11 13 12 10 8 9 12 12 9 7 6 6 7 4 4 5 6 5 5 4 3 4 4 4 10 9 8 8 6 6 6 11 12 13 8 13 15 12
11 12 14 12 10 10 12 12 11 9 10 11 9 8 7 7 7 7 6 5 5 4 4 4 4 3 2 2 4 9 11 10 6 5 8 12 12 11 9 15 15 12 7
5 6 12 13 11 7 10 12 8 10 14 13 10 9 9 7 6 4 4 5 5 4 4 4 4 3 3 3 3 5 6 10 8 10 7 7 8 8 7 6 6 6 6
9 6 10 10 11 8 8 9 8 12 12 13 11 10 7 7 6 4 2 4 5 7 7 5 5 6 4 3 5 7 5 6 8 8 5 5 5 5 6 6 3 4 4
13 7 6 9 9 9 10 8 9 12 13 11 10 9 8 5 5 5 3 6 2 5 9 10 8 3 6 12 12 11 12 15 14 4 6 4 4 7 7 8 5 3 4
Wind_Direction
252 257 252 243 213 194 182 193 168 169 154 161 151 151 153 146 130 139 139 145 164 161 169 181 169 169 175 197 214 228 219 245 202 138 272 288 286 256 229 229 211 198 216
257 256 239 220 211 204 205 172 178 168 168 167 167 118 139 111 142 145 162 173 177 165 170 162 176 181 186 224 217 195 203 247 186 156 104 211 308 271 238 211 224 217 194
248 255 243 224 176 193 189 168 162 151 148 126 112 92 83 77 89 73 123 160 159 155 156 166 164 169 178 210 210 199 184 195 207 223 149 142 212 135 326 233 219 228 198
249 246 240 212 188 172 135 125 126 125 135 134 121 139 131 142 158 149 126 130 148 155 157 149 154 177 184 196 209 200 186 151 188 234 243 79 127 154 327 318 238 220 245
254 255 245 194 176 144 133 124 120 120 134 114 125 131 123 129 134 107 121 132 154 148 149 151 165 185 187 200 202 199 193 186 172 176 157 168 115 118 139 241 256 56 348
263 249 172 133 132 123 116 122 124 124 116 110 122 127 137 133 111 108 120 130 124 135 150 151 179 189 188 202 211 211 204 200 197 187 191 170 170 180 176 174 190 145 20
216 147 132 131 126 123 120 119 125 119 114 110 112 124 130 126 130 135 135 142 139 186 188 165 188 194 206 211 209 211 203 202 201 196 210 196 202 171 152 141 148 118 117
119 115 114 119 122 122 114 119 119 120 114 112 114 107 112 113 120 137 140 151 178 170 161 176 182 207 210 211 199 206 210 195 215 220 207 193 198 186 164 157 142 97 90
134 128 116 117 120 115 122 125 118 116 116 118 109 100 106 113 125 131 140 161 157 153 169 175 194 217 218 215 207 209 216 206 203 212 209 194 191 198 195 168 158 142 138
130 128 125 126 114 120 121 110 115 121 122 118 116 122 123 118 125 130 134 144 151 155 175 191 208 225 234 201 193 206 210 218 214 187 183 183 169 188 197 183 171 145 127
146 135 131 125 124 124 119 121 121 119 122 122 123 125 135 127 131 131 142 161 156 177 190 188 216 212 199 184 174 213 225 190 179 151 147 156 157 173 158 142 137 120 110
136 131 131 131 135 130 130 131 126 128 137 141 137 138 128 125 132 146 158 160 165 185 200 208 212 210 169 189 202 228 156 131 122 145 158 157 159 135 123 105 101 110 110
136 134 134 141 144 141 140 136 142 143 149 151 134 143 136 137 147 156 161 160 159 221 226 243 158 158 190 251 290 285 190 147 141 144 186 173 138 117 116 117 113 115 115
142 142 143 144 149 147 148 149 156 154 160 146 145 133 145 150 158 152 171 165 200 250 269 158 124 108 67 40 5 270 119 135 134 130 153 157 129 123 123 122 123 121 119
148 147 148 149 149 148 152 159 162 159 160 157 142 143 144 146 152 152 168 184 222 238 162 113 101 92 65 22 358 67 111 117 116 93 83 125 123 125 132 132 132 130 126
153 153 152 152 156 160 161 168 166 160 148 152 135 142 142 147 164 162 165 170 228 225 129 120 120 102 73 346 31 91 116 120 114 96 91 110 112 106 103 112 127 141 140
160 158 159 160 163 169 164 172 155 151 153 139 142 143 150 156 169 164 155 167 176 119 122 119 125 116 92 355 32 120 109 116 106 119 108 102 105 111 113 100 104 104 94
164 161 161 161 166 166 164 146 143 146 145 147 153 156 147 152 164 144 150 141 133 122 130 132 125 114 71 354 43 111 95 94 101 111 113 117 118 121 123 113 115 116 113
167 165 162 161 159 164 160 147 147 147 142 156 151 159 144 160 162 148 151 159 141 133 150 144 137 130 103 19 73 105 95 95 106 102 113 116 121 116 115 114 105 96 81
149 159 158 154 154 159 154 150 150 148 156 157 155 159 156 161 153 150 155 159 163 144 135 134 143 139 122 27 98 114 111 113 108 101 99 102 124 117 104 117 115 111 111
155 151 152 157 160 153 153 155 151 162 169 158 154 153 159 158 158 136 136 145 128 116 118 118 126 116 120 66 137 121 111 126 116 117 118 123 118 115 105 115 125 126 117
148 151 148 153 155 155 157 157 166 167 157 162 154 154 144 153 142 138 126 118 118 110 118 121 115 92 89 88 134 123 117 130 132 128 122 131 129 122 116 105 117 122 121
146 147 145 146 161 159 162 163 186 138 149 147 149 146 140 140 143 135 141 124 124 128 140 137 143 138 111 110 102 127 126 116 109 119 122 131 126 117 99 131 136 131 126
84 130 142 153 166 164 167 172 163 141 151 151 147 147 147 140 133 136 138 136 152 150 153 153 154 151 145 151 115 122 104 96 86 101 111 126 109 86 111 119 141 139 144
30 156 154 164 172 167 172 171 154 143 153 153 151 153 150 153 136 98 150 166 193 177 169 179 162 161 165 193 147 141 132 131 136 117 120 131 134 128 144 157 145 141 145
23 46 153 155 168 178 174 171 148 147 152 155 155 159 157 155 147 142 125 65 36 274 211 162 165 177 142 145 147 140 133 133 150 120 147 147 148 156 162 171 162 154 165